Skip Page Navigation
NASA JPL Caltech
NASA Logo - Jet Propulsion Laboratory + View the NASA Portal
+ Near-Earth Object (NEO) Program
Search JPL
JPL Home Earth Solar System Stars & Galaxies Technology
JPL Solar System Dynamics
BODIES ORBITS EPHEMERIDES TOOLS PHYSICAL DATA DISCOVERY FAQ SITE MAP
JPL Small-Body Database Browser
Search: [ help ]  
175259 Offenberger (2005 JH91)
Classification: Main-belt Asteroid          SPK-ID: 2175259
Ephemeris | Orbit Diagram | Orbital Elements | Physical Parameters | Discovery Circumstances ]

[ show orbit diagram ]
Orbital Elements at Epoch 2456400.5 (2013-Apr-18.0) TDB
Reference: MPO245269 (heliocentric ecliptic J2000)
 Element Value Uncertainty (1-sigma)   Units 
e 0.2360614 n/a  
a 3.1627430 n/a AU
q 2.4161415 n/a AU
i 10.76356 n/a deg
node 87.64496 n/a deg
peri 274.01437 n/a deg
M 40.81868 n/a deg
tp 2456167.5564213
(2012-Aug-28.05642130)
n/a JED
period 2054.4439048
5.62
n/a
n/a
d
yr
n 0.17522990 n/a deg/d
Q 3.9093445 n/a AU
  Orbit Determination Parameters
   # obs. used (total)      133  
   first obs. used      2001-??-??  
   last obs. used      2012-11-10  
   # oppositions      8  
   planetary ephem.      DE403  
   condition code      0  
   fit RMS      0.57  
   data source      MPC:mpu  
   producer      MPCLINUX  

Additional Information
 T_jup = 3.134 

Ephemeris | Orbit Diagram | Orbital Elements | Physical Parameters | Discovery Circumstances ]

Physical Parameter Table
Parameter Symbol Value Units Sigma Reference Notes
absolute magnitude H 15.4 mag n/a MPO245269  

175259 Offenberger           Discovered 2005 May 10 by B. Christophe at Saint-Sulpice.
Allan Offenberger (b. 1938), a retired physicist and professor emeritus at the University of Alberta, was the discoverer's thesis advisor. His principal research was on laser plasma interactions. He now promotes the creation of an "Alberta-Canada Fusion Energy Institute" for developing long-lasting clean-energy sources.
NOTE: some special characters may not display properly (any characters within {} are an attempt to place the proper accent above a character)
Reference: 20080819/MPCPages.arcLast Updated: 2008-08-25

Alternate Designations
 2005 JH91 = 2006 PR30 
Ephemeris | Orbit Diagram | Orbital Elements | Physical Parameters | Discovery Circumstances ]
ABOUT SSD CREDITS/AWARDS PRIVACY/COPYRIGHT GLOSSARY LINKS
FirstGov 2013-May-18 12:21 UT
(server date/time)  
NASA Home Page
Site Manager:   Donald K. Yeomans
Webmaster  Alan B. Chamberlin